Hartford, CT

10:26 PM EST on December 15, 2017 (GMT -0500)
Hartford-brainard

Weather History for KHFD - June, 2014

Change the Weather History Date:

Wednesday, June 4, 2014

  Actual Average Record
Temperature  
Mean Temperature 68 °F -  
Max Temperature 75 °F 75 °F 97 °F (1925)
Min Temperature 62 °F 53 °F 41 °F (1984)
Cooling Degree Days 4    
Growing Degree Days 18 (Base 50)    
Moisture  
Dew Point 59 °F    
Average Humidity 76    
Maximum Humidity 90    
Minimum Humidity 60    
Precipitation  
Precipitation 0.00 in - - ()
Sea Level Pressure  
Sea Level Pressure 29.81 in    
Wind  
Wind Speed 4 mph (SE)    
Max Wind Speed 12 mph    
Max Gust Speed -    
Visibility 10 miles    
Events Rain    
Averages and records for this station are not official NWS values.
T = Trace of Precipitation, MM = Missing Value Source: NWS Daily Summary

Daily Weather History Graph

Daily Weather History Graph

Search for Another Location

Airport or City:

Trip Planner

Search our weather history database for the weather conditions in past years. The results will help you decide how hot, cold, wet, or windy it might be!

Date:

Astronomy

Jun. 04, 2014 Rise Set
Actual Time 5:17 AM EDT 8:21 PM EDT
Civil Twilight 4:43 AM EDT 8:54 PM EDT
Nautical Twilight 4:00 AM EDT 9:37 PM EDT
Astronomical Twilight 3:10 AM EDT 10:28 PM EDT
Moon 11:37 AM EDT (6/4) 12:14 AM EDT (6/4)
Length of Visible Light 16h 11m
Length of Day
15h 03m
Waxing Crescent, 39% of the Moon is Illuminated
Jun 4
Waxing Crescent
Jun 5
First Quarter
Jun 13
Full
Jun 19
Last Quarter
Jun 27
New

Hourly Weather History & Observations

Time (EDT) Temp. Dew Point Humidity Pressure Visibility Wind Dir Wind Speed Gust Speed Precip Events Conditions
1:08 AM 64.0 °F 57.9 °F 80% 29.85 in 10.0 mi East 4.6 mph - N/A   Overcast
1:31 AM 64.0 °F 57.9 °F 80% 29.84 in 10.0 mi Calm Calm - N/A   Overcast
3:53 AM 63.0 °F 57.9 °F 84% 29.82 in 10.0 mi Calm Calm - N/A   Overcast
4:14 AM 62.1 °F 57.9 °F 86% 29.83 in 10.0 mi NNE 4.6 mph - N/A   Overcast
4:21 AM 62.1 °F 57.9 °F 86% 29.84 in 10.0 mi NNE 4.6 mph - N/A   Overcast
4:53 AM 62.1 °F 57.0 °F 84% 29.84 in 10.0 mi NE 6.9 mph - N/A   Overcast
5:53 AM 62.1 °F 57.0 °F 84% 29.85 in 10.0 mi ENE 5.8 mph - N/A   Overcast
6:53 AM 62.1 °F 55.9 °F 80% 29.85 in 10.0 mi ESE 5.8 mph - N/A   Overcast
7:53 AM 63.0 °F 55.9 °F 78% 29.86 in 10.0 mi Calm Calm - N/A   Overcast
8:27 AM 64.0 °F 57.0 °F 78% 29.86 in 10.0 mi Calm Calm - N/A   Overcast
8:36 AM 64.0 °F 55.9 °F 75% 29.87 in 10.0 mi Calm Calm - N/A   Overcast
8:53 AM 64.0 °F 57.0 °F 78% 29.87 in 10.0 mi Calm Calm - N/A   Overcast
9:53 AM 66.0 °F 57.9 °F 75% 29.86 in 10.0 mi Variable 3.5 mph - N/A   Overcast
10:53 AM 68.0 °F 59.0 °F 73% 29.85 in 10.0 mi Calm Calm - N/A   Overcast
11:30 AM 70.0 °F 59.0 °F 68% 29.83 in 10.0 mi Calm Calm - N/A   Scattered Clouds
11:53 AM 71.1 °F 60.1 °F 68% 29.83 in 10.0 mi Variable 3.5 mph - N/A   Scattered Clouds
12:53 PM 73.0 °F 61.0 °F 66% 29.80 in 10.0 mi South 5.8 mph - N/A   Partly Cloudy
1:53 PM 73.9 °F 61.0 °F 64% 29.78 in 10.0 mi SE 6.9 mph - N/A   Clear
2:53 PM 75.0 °F 60.1 °F 60% 29.76 in 10.0 mi SE 4.6 mph - N/A   Clear
3:53 PM 75.9 °F 61.0 °F 60% 29.75 in 10.0 mi SE 5.8 mph - N/A   Clear
4:53 PM 73.9 °F 63.0 °F 68% 29.74 in 10.0 mi South 11.5 mph - N/A   Mostly Cloudy
5:53 PM 73.0 °F 64.0 °F 73% 29.75 in 10.0 mi SE 4.6 mph - N/A   Partly Cloudy
6:53 PM 71.1 °F 63.0 °F 75% 29.75 in 10.0 mi SSE 8.1 mph - N/A   Clear
7:53 PM 70.0 °F 63.0 °F 78% 29.75 in 10.0 mi SSE 6.9 mph - N/A   Scattered Clouds
8:53 PM 68.0 °F 62.1 °F 81% 29.75 in 10.0 mi South 9.2 mph - N/A   Scattered Clouds
9:53 PM 66.0 °F 62.1 °F 87% 29.77 in 10.0 mi South 5.8 mph - N/A   Clear
11:53 PM 64.0 °F 61.0 °F 90% 29.77 in 9.0 mi SE 6.9 mph - 0.00 in Rain Light Rain